TimeCDT,TemperatureF,Dew PointF,Humidity,Sea Level PressureIn,VisibilityMPH,Wind Direction,Wind SpeedMPH,Gust SpeedMPH,PrecipitationIn,Events,Conditions,WindDirDegrees,DateUTC
12:15 AM,73.4,59.0,61,29.97,10.0,SE,3.5,-,N/A,,Clear,140,2013-09-15 05:15:00
12:35 AM,73.4,57.2,57,29.97,10.0,SE,3.5,-,N/A,,Clear,140,2013-09-15 05:35:00
12:55 AM,73.4,55.4,53,29.97,10.0,SE,5.8,-,N/A,,Clear,140,2013-09-15 05:55:00
1:15 AM,73.4,55.4,53,29.97,10.0,SE,5.8,-,N/A,,Clear,140,2013-09-15 06:15:00
1:35 AM,73.4,55.4,53,29.97,10.0,SE,4.6,-,N/A,,Clear,140,2013-09-15 06:35:00
1:55 AM,73.4,55.4,53,29.98,10.0,SE,5.8,-,N/A,,Clear,130,2013-09-15 06:55:00
2:15 AM,73.4,53.6,50,29.98,10.0,SE,5.8,-,N/A,,Clear,140,2013-09-15 07:15:00
2:35 AM,73.4,53.6,50,29.98,10.0,SE,5.8,-,N/A,,Clear,140,2013-09-15 07:35:00
2:55 AM,73.4,53.6,50,29.98,10.0,SE,5.8,-,N/A,,Clear,140,2013-09-15 07:55:00
3:15 AM,73.4,53.6,50,29.98,10.0,SE,5.8,-,N/A,,Clear,140,2013-09-15 08:15:00
3:35 AM,73.4,53.6,50,29.98,10.0,SE,5.8,-,N/A,,Clear,140,2013-09-15 08:35:00
3:55 AM,71.6,53.6,53,29.98,10.0,SE,4.6,-,N/A,,Clear,130,2013-09-15 08:55:00
4:15 AM,71.6,53.6,53,29.98,10.0,SE,4.6,-,N/A,,Clear,130,2013-09-15 09:15:00
4:35 AM,71.6,53.6,53,29.98,10.0,SE,4.6,-,N/A,,Mostly Cloudy,140,2013-09-15 09:35:00
4:55 AM,71.6,53.6,53,29.98,10.0,SE,4.6,-,N/A,,Mostly Cloudy,130,2013-09-15 09:55:00
5:15 AM,71.6,53.6,53,29.98,10.0,ESE,4.6,-,N/A,,Scattered Clouds,120,2013-09-15 10:15:00
5:35 AM,69.8,53.6,56,29.99,10.0,SE,3.5,-,N/A,,Clear,130,2013-09-15 10:35:00
5:55 AM,69.8,53.6,56,29.99,10.0,Calm,Calm,-,N/A,,Clear,0,2013-09-15 10:55:00
6:15 AM,69.8,53.6,56,29.99,10.0,Calm,Calm,-,N/A,,Clear,0,2013-09-15 11:15:00
6:35 AM,68.0,53.6,60,30.00,10.0,Calm,Calm,-,N/A,,Clear,0,2013-09-15 11:35:00
6:55 AM,68.0,53.6,60,30.01,10.0,Calm,Calm,-,N/A,,Clear,0,2013-09-15 11:55:00
7:15 AM,68.0,51.8,56,30.01,10.0,Calm,Calm,-,N/A,,Clear,0,2013-09-15 12:15:00
7:35 AM,68.0,51.8,56,30.02,10.0,SE,3.5,-,N/A,,Clear,130,2013-09-15 12:35:00
7:55 AM,68.0,51.8,56,30.02,10.0,SE,3.5,-,N/A,,Clear,130,2013-09-15 12:55:00
8:15 AM,69.8,51.8,53,30.03,10.0,SE,4.6,-,N/A,,Clear,130,2013-09-15 13:15:00
8:35 AM,69.8,51.8,53,30.03,10.0,SE,3.5,-,N/A,,Clear,140,2013-09-15 13:35:00
8:55 AM,71.6,51.8,50,30.03,10.0,SE,5.8,-,N/A,,Clear,140,2013-09-15 13:55:00
9:15 AM,73.4,51.8,47,30.04,10.0,SE,5.8,-,N/A,,Clear,140,2013-09-15 14:15:00
9:35 AM,73.4,53.6,50,30.04,10.0,SSE,5.8,-,N/A,,Clear,150,2013-09-15 14:35:00
9:55 AM,77.0,53.6,44,30.05,10.0,South,6.9,-,N/A,,Clear,170,2013-09-15 14:55:00
10:15 AM,77.0,55.4,47,30.05,10.0,South,8.1,-,N/A,,Clear,170,2013-09-15 15:15:00
10:35 AM,78.8,55.4,44,30.05,10.0,South,8.1,-,N/A,,Clear,170,2013-09-15 15:35:00
10:55 AM,80.6,55.4,42,30.05,10.0,SSE,6.9,-,N/A,,Clear,160,2013-09-15 15:55:00
11:15 AM,82.4,57.2,42,30.04,10.0,South,6.9,-,N/A,,Clear,170,2013-09-15 16:15:00
11:35 AM,84.2,59.0,42,30.04,10.0,SSE,5.8,-,N/A,,Clear,150,2013-09-15 16:35:00
11:55 AM,86.0,60.8,43,30.04,10.0,South,5.8,-,N/A,,Clear,180,2013-09-15 16:55:00
12:15 PM,87.8,60.8,40,30.03,10.0,SW,4.6,-,N/A,,Clear,220,2013-09-15 17:15:00
12:35 PM,89.6,60.8,38,30.02,10.0,WSW,6.9,-,N/A,,Clear,250,2013-09-15 17:35:00
12:55 PM,89.6,62.6,40,30.02,10.0,SW,10.4,16.1,N/A,,Clear,230,2013-09-15 17:55:00
1:15 PM,89.6,62.6,40,30.01,10.0,SW,4.6,-,N/A,,Clear,220,2013-09-15 18:15:00
1:35 PM,91.4,62.6,38,30.01,10.0,SW,8.1,-,N/A,,Scattered Clouds,220,2013-09-15 18:35:00
1:55 PM,91.4,62.6,38,30.00,10.0,SSW,8.1,-,N/A,,Clear,210,2013-09-15 18:55:00
2:15 PM,91.4,62.6,38,29.99,10.0,SW,4.6,-,N/A,,Mostly Cloudy,220,2013-09-15 19:15:00
2:35 PM,93.2,60.8,34,29.98,10.0,South,6.9,-,N/A,,Scattered Clouds,190,2013-09-15 19:35:00
2:55 PM,91.4,62.6,38,29.98,10.0,Calm,Calm,-,N/A,,Scattered Clouds,0,2013-09-15 19:55:00
3:15 PM,91.4,62.6,38,29.98,10.0,SSE,8.1,-,N/A,,Scattered Clouds,160,2013-09-15 20:15:00
3:35 PM,93.2,62.6,36,29.97,10.0,SSE,9.2,-,N/A,,Clear,160,2013-09-15 20:35:00
3:55 PM,91.4,60.8,36,29.97,10.0,South,8.1,-,N/A,,Mostly Cloudy,170,2013-09-15 20:55:00
4:15 PM,91.4,59.0,34,29.97,10.0,SSE,6.9,-,N/A,,Scattered Clouds,160,2013-09-15 21:15:00
4:35 PM,93.2,60.8,34,29.97,10.0,South,9.2,-,N/A,,Clear,170,2013-09-15 21:35:00
4:55 PM,91.4,60.8,36,29.97,10.0,SSE,4.6,-,N/A,,Clear,150,2013-09-15 21:55:00
5:15 PM,91.4,60.8,36,29.96,10.0,South,5.8,-,N/A,,Clear,170,2013-09-15 22:15:00
5:35 PM,91.4,60.8,36,29.97,10.0,South,8.1,-,N/A,,Scattered Clouds,180,2013-09-15 22:35:00
5:55 PM,91.4,62.6,38,29.97,10.0,South,6.9,-,N/A,,Scattered Clouds,180,2013-09-15 22:55:00
6:15 PM,89.6,62.6,40,29.97,10.0,South,4.6,-,N/A,,Scattered Clouds,180,2013-09-15 23:15:00
6:35 PM,89.6,60.8,38,29.97,10.0,SSE,6.9,-,N/A,,Mostly Cloudy,160,2013-09-15 23:35:00
6:55 PM,89.6,60.8,38,29.97,10.0,SSE,4.6,-,N/A,,Scattered Clouds,150,2013-09-15 23:55:00
7:15 PM,87.8,62.6,43,29.98,10.0,SSE,3.5,-,N/A,,Clear,150,2013-09-16 00:15:00
7:35 PM,87.8,62.6,43,29.98,10.0,SSE,3.5,-,N/A,,Clear,150,2013-09-16 00:35:00
7:55 PM,86.0,62.6,45,29.98,10.0,Calm,Calm,-,N/A,,Clear,0,2013-09-16 00:55:00
8:15 PM,86.0,62.6,45,29.98,10.0,SSE,4.6,-,N/A,,Clear,160,2013-09-16 01:15:00
8:35 PM,86.0,62.6,45,29.99,10.0,SSE,3.5,-,N/A,,Clear,160,2013-09-16 01:35:00
8:55 PM,84.2,62.6,48,30.00,10.0,Calm,Calm,-,N/A,,Clear,0,2013-09-16 01:55:00
9:15 PM,82.4,62.6,51,30.01,10.0,Calm,Calm,-,N/A,,Clear,0,2013-09-16 02:15:00
9:35 PM,82.4,64.4,54,30.02,10.0,Calm,Calm,-,N/A,,Clear,0,2013-09-16 02:35:00
9:55 PM,80.6,64.4,58,30.02,10.0,ESE,3.5,-,N/A,,Clear,120,2013-09-16 02:55:00
10:15 PM,80.6,64.4,58,30.03,10.0,Calm,Calm,-,N/A,,Clear,0,2013-09-16 03:15:00
10:35 PM,80.6,64.4,58,30.03,10.0,Calm,Calm,-,N/A,,Clear,0,2013-09-16 03:35:00
10:55 PM,78.8,64.4,61,30.04,10.0,Calm,Calm,-,N/A,,Clear,0,2013-09-16 03:55:00
11:15 PM,78.8,64.4,61,30.04,10.0,Calm,Calm,-,N/A,,Clear,0,2013-09-16 04:15:00
11:35 PM,78.8,64.4,61,30.04,10.0,Calm,Calm,-,N/A,,Clear,0,2013-09-16 04:35:00
11:55 PM,78.8,64.4,61,30.04,10.0,Calm,Calm,-,N/A,,Clear,0,2013-09-16 04:55:00